Philadelphia, PA

5:46 PM EST on November 11, 2019 (GMT -0500)
Philadelphia International

Weather History for KPHL - May, 2019

Change the Weather History Date:

Tuesday, May 14, 2019

  Actual Average Record
Temperature  
Mean Temperature 53 °F 63 °F  
Max Temperature 58 °F 73 °F 92 °F (1956)
Min Temperature 47 °F 53 °F 40 °F (1996)
Degree Days  
Heating Degree Days 12 4  
Month to date heating degree days 69 71  
Since 1 July heating degree days 4354 4561  
Cooling Degree Days 0 2  
Month to date cooling degree days 9 19  
Year to date cooling degree days 33 32  
Growing Degree Days 2 (Base 50)    
Moisture  
Dew Point 44 °F    
Average Humidity 70    
Maximum Humidity 89    
Minimum Humidity 51    
Precipitation  
Precipitation 0.01 in 0.12 in 1.48 in (1930)
Month to date precipitation 3.80 1.59  
Year to date precipitation 17.86 14.62  
Snow  
Snow 0.00 in 0.00 in T in (2010)
Month to date snowfall 0.0 0.0  
Since 1 July snowfall 17.1 22.4  
Snow Depth 0.00 in    
Sea Level Pressure  
Sea Level Pressure 29.84 in    
Wind  
Wind Speed 9 mph (WSW)    
Max Wind Speed 25 mph    
Max Gust Speed 33 mph    
Visibility 10 miles    
Events Rain    
T = Trace of Precipitation, MM = Missing Value Source: NWS Daily Summary

Daily Weather History Graph

Daily Weather History Graph

Search for Another Location

Airport or City:

Astronomy

May. 14, 2019 Rise Set
Actual Time 5:47 AM EDT 8:07 PM EDT
Civil Twilight 5:16 AM EDT 8:38 PM EDT
Nautical Twilight 4:39 AM EDT 9:16 PM EDT
Astronomical Twilight 3:57 AM EDT 9:57 PM EDT
Moon 3:27 PM EDT (5/14) 3:38 AM EDT (5/14)
Length of Visible Light 15h 21m
Length of Day
14h 20m
Waxing Gibbous, 79% of the Moon is Illuminated
May 14
Waxing Gibbous
May 18
Full
May 26
Last Quarter
Jun 3
New
Jun 10
First Quarter

Hourly Weather History & Observations

Time (EDT) Temp. Dew Point Humidity Pressure Visibility Wind Dir Wind Speed Gust Speed Precip Events Conditions
12:20 AM 48.9 °F 44.1 °F 83% 29.84 in 10.0 mi East 6.9 mph - N/A   Overcast
12:54 AM 48.9 °F 44.1 °F 83% 29.84 in 10.0 mi ESE 5.8 mph - N/A   Overcast
1:54 AM 48.9 °F 44.1 °F 83% 29.83 in 10.0 mi East 3.5 mph - N/A   Overcast
2:54 AM 48.0 °F 45.0 °F 89% 29.81 in 10.0 mi East 3.5 mph - N/A   Overcast
3:34 AM 48.9 °F 45.0 °F 86% 29.81 in 10.0 mi SE 3.5 mph - N/A   Overcast
3:54 AM 48.0 °F 45.0 °F 89% 29.81 in 10.0 mi Calm Calm - N/A   Overcast
4:04 AM 48.0 °F 45.0 °F 89% 29.81 in 6.0 mi Calm Calm - 0.00 in Rain Light Rain
4:10 AM 48.0 °F 45.0 °F 89% 29.81 in 4.0 mi Variable 3.5 mph - 0.00 in Rain Light Rain
4:35 AM 46.9 °F 45.0 °F 93% 29.81 in 6.0 mi SSE 4.6 mph - 0.01 in Rain Light Rain
4:43 AM 46.9 °F 45.0 °F 93% 29.82 in 8.0 mi Calm Calm - 0.01 in   Overcast
4:54 AM 46.9 °F 45.0 °F 93% 29.82 in 8.0 mi SE 3.5 mph - 0.01 in Rain Light Rain
5:28 AM 48.0 °F 45.0 °F 89% 29.82 in 10.0 mi SSE 4.6 mph - 0.00 in   Overcast
5:54 AM 48.0 °F 45.0 °F 89% 29.83 in 10.0 mi SE 4.6 mph - 0.00 in   Overcast
6:54 AM 48.0 °F 45.0 °F 89% 29.84 in 10.0 mi South 3.5 mph - N/A   Overcast
7:54 AM 48.9 °F 45.0 °F 86% 29.84 in 10.0 mi SSW 5.8 mph - N/A   Overcast
8:54 AM 51.1 °F 48.0 °F 89% 29.84 in 10.0 mi SW 5.8 mph - 0.00 in   Overcast
9:02 AM 51.1 °F 48.0 °F 89% 29.84 in 10.0 mi SSW 6.9 mph - N/A   Overcast
9:47 AM 53.1 °F 46.9 °F 80% 29.84 in 10.0 mi SW 6.9 mph - N/A   Overcast
9:54 AM 53.1 °F 46.0 °F 77% 29.83 in 10.0 mi West 6.9 mph - N/A   Overcast
10:38 AM 53.1 °F 45.0 °F 74% 29.84 in 10.0 mi NNW 6.9 mph 16.1 mph 0.00 in   Overcast
10:54 AM 53.1 °F 44.1 °F 71% 29.84 in 10.0 mi WNW 5.8 mph - 0.00 in   Overcast
11:54 AM 54.0 °F 43.0 °F 66% 29.85 in 10.0 mi WNW 10.4 mph - N/A   Overcast
12:54 PM 53.1 °F 39.9 °F 61% 29.84 in 10.0 mi WNW 11.5 mph - N/A   Overcast
1:54 PM 55.0 °F 41.0 °F 59% 29.83 in 10.0 mi West 11.5 mph - N/A   Overcast
2:54 PM 57.0 °F 41.0 °F 55% 29.81 in 10.0 mi West 15.0 mph 23.0 mph N/A   Overcast
3:54 PM 57.0 °F 42.1 °F 57% 29.81 in 10.0 mi West 18.4 mph - N/A   Overcast
4:54 PM 57.0 °F 39.9 °F 53% 29.81 in 10.0 mi WNW 12.7 mph - N/A   Overcast
5:54 PM 57.0 °F 39.9 °F 53% 29.81 in 10.0 mi WNW 18.4 mph - N/A   Overcast
6:54 PM 54.0 °F 42.1 °F 64% 29.83 in 10.0 mi NW 15.0 mph - 0.00 in   Overcast
7:54 PM 53.1 °F 44.1 °F 71% 29.86 in 10.0 mi NW 10.4 mph - 0.00 in   Overcast
8:54 PM 52.0 °F 44.1 °F 74% 29.88 in 10.0 mi WNW 10.4 mph - N/A   Mostly Cloudy
9:54 PM 52.0 °F 43.0 °F 71% 29.89 in 10.0 mi WNW 8.1 mph - N/A   Overcast
10:54 PM 50.0 °F 41.0 °F 71% 29.90 in 10.0 mi WNW 10.4 mph - N/A   Partly Cloudy
11:54 PM 48.9 °F 39.9 °F 71% 29.90 in 10.0 mi NW 8.1 mph - N/A   Clear